Weather History for Kremmling, CO

Change the Weather History Date:

Tuesday, January 1, 2013

  Actual Average (KEGE) Record (KEGE)
Temperature  
Mean Temperature 0 °F -  
Max Temperature 10 °F 29 °F 51 °F (1981)
Min Temperature -9 °F -2 °F -23 °F (1979)
Degree Days  
Heating Degree Days 64    
Moisture  
Dew Point -6 °F    
Average Humidity 72    
Maximum Humidity 78    
Minimum Humidity 57    
Precipitation  
Precipitation 0.00 in - - ()
Sea Level Pressure  
Sea Level Pressure 30.13 in    
Wind  
Wind Speed 0 mph (NNW)    
Max Wind Speed 5 mph    
Max Gust Speed -    
Averages and records for this station are not official NWS values.
T = Trace of Precipitation, MM = Missing Value Source: NWS Daily Summary

Daily Weather History Graph

Daily Weather History Graph

Search for Another Location

Airport:

Trip Planner

Search our weather history database for the weather conditions in past years. The results will help you decide how hot, cold, wet, or windy it might be!

Date:

Astronomy

Jan. 01, 2013 Rise Set
Actual Time 7:27 AM MST 4:51 PM MST
Civil Twilight 6:57 AM MST 5:21 PM MST
Nautical Twilight 6:23 AM MST 5:55 PM MST
Astronomical Twilight 5:50 AM MST 6:28 PM MST
Moon 9:24 PM MST (1/1) 9:41 AM MST (1/1)
Length of Visible Light 10h 24m
Length of Day
9h 23m
Waning Gibbous, 83% of the Moon is Illuminated
Jan 1
Waning Gibbous
Jan 4
Last Quarter
Jan 11
New
Jan 18
First Quarter
Jan 26
Full

Hourly Weather History & Observations

Time (MST) Temp. Windchill Dew Point Humidity Pressure Visibility Wind Dir Wind Speed Gust Speed Precip Events Conditions
12:14 AM -2.2 °F - -7.6 °F 78% 30.01 in - Calm Calm - N/A   Overcast
12:35 AM -2.2 °F - -9.4 °F 71% 30.02 in - Calm Calm - N/A Snow Light Snow
12:55 AM -5.8 °F - -11.2 °F 77% 30.02 in - Calm Calm - N/A Snow Light Snow
1:15 AM -7.6 °F -16.5 °F -14.8 °F 71% 30.02 in - North 3.5 mph - N/A Snow Light Snow
1:35 AM -7.6 °F - -14.8 °F 71% 30.03 in - Calm Calm - N/A Snow Light Snow
2:15 AM -9.4 °F - -16.6 °F 71% 30.05 in - Calm Calm - N/A Snow Light Snow
2:35 AM -7.6 °F - -14.8 °F 71% 30.06 in - Calm Calm - N/A Snow Light Snow
2:55 AM -7.6 °F - -14.8 °F 71% 30.06 in - Calm Calm - N/A Snow Snow
3:14 AM -7.6 °F - -14.8 °F 71% 30.06 in - Calm Calm - N/A   Overcast
3:35 AM -5.8 °F - -13.0 °F 71% 30.06 in - Calm Calm - N/A Snow Light Snow
3:55 AM -7.6 °F - -14.8 °F 71% 30.07 in - Calm Calm - N/A Snow Light Snow
4:14 AM -7.6 °F - -14.8 °F 71% 30.07 in - Calm Calm - N/A Snow Light Snow
4:35 AM -7.6 °F - -14.8 °F 71% 30.07 in - Calm Calm - N/A   Mostly Cloudy
4:55 AM -7.6 °F - -14.8 °F 71% 30.06 in - Calm Calm - N/A Snow Light Snow
5:15 AM -7.6 °F - -14.8 °F 71% 30.07 in - Calm Calm - N/A Snow Light Snow
5:35 AM -5.8 °F - -13.0 °F 71% 30.08 in - Calm Calm - N/A Snow Light Snow
5:55 AM -5.8 °F - -13.0 °F 71% 30.08 in - Calm Calm - N/A Snow Light Snow
6:15 AM -5.8 °F - -13.0 °F 71% 30.09 in - Calm Calm - N/A Snow Light Snow
6:35 AM -4.0 °F - -11.2 °F 71% 30.09 in - Calm Calm - N/A Snow Light Snow
6:55 AM -4.0 °F - -9.4 °F 78% 30.10 in - Calm Calm - N/A Snow Light Snow
7:15 AM -4.0 °F - -9.4 °F 78% 30.11 in - Calm Calm - N/A Snow Light Snow
7:35 AM -2.2 °F - -9.4 °F 71% 30.12 in - Calm Calm - N/A   Overcast
7:55 AM -2.2 °F - -7.6 °F 78% 30.12 in - Calm Calm - N/A Snow Light Snow
8:15 AM -2.2 °F - -9.4 °F 71% 30.13 in - Calm Calm - N/A Snow Light Snow
8:35 AM -2.2 °F - -7.6 °F 78% 30.14 in - Calm Calm - N/A Snow Light Snow
8:55 AM -0.4 °F - -7.6 °F 72% 30.14 in - Calm Calm - N/A Snow Light Snow
9:15 AM -0.4 °F - -5.8 °F 78% 30.16 in - Calm Calm - N/A   Overcast
9:35 AM -0.4 °F - -5.8 °F 78% 30.16 in - Calm Calm - N/A   Overcast
9:55 AM 1.4 °F - -5.8 °F 72% 30.16 in - Calm Calm - N/A   Overcast
10:15 AM 1.4 °F - -4.0 °F 78% 30.17 in - Calm Calm - N/A   Mostly Cloudy
10:34 AM 3.2 °F -6.2 °F -4.0 °F 72% 30.16 in - WSW 4.6 mph - N/A   Mostly Cloudy
10:54 AM 3.2 °F - -4.0 °F 72% 30.16 in - Calm Calm - N/A   Overcast
11:14 AM 3.2 °F - -4.0 °F 72% 30.16 in - Calm Calm - N/A   Clear
11:35 AM 5.0 °F - -4.0 °F 66% 30.15 in - Calm Calm - N/A   Clear
12:15 PM 8.6 °F - -4.0 °F 57% 30.14 in - Calm Calm - N/A   Clear
12:35 PM 8.6 °F - -4.0 °F 57% 30.13 in - Calm Calm - N/A   Clear
12:55 PM 8.6 °F - -4.0 °F 57% 30.12 in - Calm Calm - N/A   Unknown
1:15 PM 10.4 °F - -2.2 °F 57% 30.12 in - Calm Calm - N/A   Overcast
1:35 PM 8.6 °F - -0.4 °F 67% 30.12 in - Calm Calm - N/A   Overcast
1:55 PM 8.6 °F - -0.4 °F 67% 30.12 in - Calm Calm - N/A Snow Light Snow
2:15 PM 8.6 °F - -0.4 °F 67% 30.12 in - Calm Calm - N/A Snow Light Snow
2:35 PM 8.6 °F - -0.4 °F 67% 30.12 in - Calm Calm - N/A   Overcast
2:55 PM 8.6 °F - 1.4 °F 73% 30.12 in - Calm Calm - N/A   Overcast
3:15 PM 8.6 °F - -0.4 °F 67% 30.12 in - Calm Calm - N/A Snow Light Snow
3:35 PM 8.6 °F - 1.4 °F 73% 30.13 in - Calm Calm - N/A   Overcast
3:55 PM 8.6 °F - -0.4 °F 67% 30.13 in - Calm Calm - N/A   Overcast
4:15 PM 3.2 °F - -4.0 °F 72% 30.14 in - Calm Calm - N/A   Overcast
4:35 PM 3.2 °F -4.2 °F -2.2 °F 78% 30.14 in - North 3.5 mph - N/A   Overcast
4:55 PM 3.2 °F - -2.2 °F 78% 30.14 in - Calm Calm - N/A   Overcast
5:15 PM 3.2 °F - -4.0 °F 72% 30.13 in - Calm Calm - N/A   Overcast
5:35 PM 1.4 °F - -4.0 °F 78% 30.14 in - Calm Calm - N/A   Mostly Cloudy
5:55 PM 1.4 °F - -5.8 °F 72% 30.14 in - Calm Calm - N/A   Overcast
6:15 PM 1.4 °F - -4.0 °F 78% 30.16 in - Calm Calm - N/A   Overcast
6:35 PM 1.4 °F -6.2 °F -5.8 °F 72% 30.17 in - NNE 3.5 mph - N/A   Overcast
6:55 PM 1.4 °F - -5.8 °F 72% 30.18 in - Calm Calm - N/A   Overcast
7:15 PM 1.4 °F - -4.0 °F 78% 30.18 in - Calm Calm - N/A   Overcast
7:35 PM 3.2 °F - -4.0 °F 72% 30.18 in - Calm Calm - N/A   Overcast
7:55 PM 1.4 °F - -4.0 °F 78% 30.18 in - Calm Calm - N/A   Overcast
8:15 PM 1.4 °F - -4.0 °F 78% 30.17 in - Calm Calm - N/A   Overcast
8:35 PM 3.2 °F - -4.0 °F 72% 30.18 in - Calm Calm - N/A   Overcast
8:54 PM 3.2 °F - -4.0 °F 72% 30.17 in - Calm Calm - N/A   Overcast
9:15 PM 3.2 °F - -4.0 °F 72% 30.18 in - Calm Calm - N/A   Overcast
9:34 PM 3.2 °F - -4.0 °F 72% 30.19 in - Calm Calm - N/A   Overcast
9:54 PM 3.2 °F - -4.0 °F 72% 30.19 in - Calm Calm - N/A   Overcast
10:14 PM 3.2 °F - -2.2 °F 78% 30.19 in - Calm Calm - N/A Snow Light Snow
10:35 PM 3.2 °F - -2.2 °F 78% 30.19 in - Calm Calm - N/A   Overcast
10:54 PM 3.2 °F - -2.2 °F 78% 30.19 in - Calm Calm - N/A Snow Light Snow
11:15 PM 3.2 °F - -2.2 °F 78% 30.19 in - Calm Calm - N/A Snow Light Snow
11:35 PM 5.0 °F - -2.2 °F 72% 30.19 in - Calm Calm - N/A   Overcast
11:55 PM 3.2 °F - -2.2 °F 78% 30.19 in - Calm Calm - N/A   Overcast